Location: Goettingen
(51.5300°N, 9.9433°E)
Time: 14:43:46
(UTC+01:00)

ISS - Pass Details

Date: 22 January 2021
Orbit: 418 x 421 km, 51.6° (Epoch: 24 January)

Event Time Altitude Azimuth Distance (km) Brightness Sun altitude
Rises 18:41:25 0° 231° (SW) 2,363 1.2 -16.6°
Reaches altitude 10° 18:43:35 10° 223° (SW) 1,502 -0.2 -16.9°
Maximum altitude 18:46:45 39° 154° (SSE) 653 -3.0 -17.4°
Enters shadow 18:47:10 37° 134° (SE) 676 -3.0 -17.5°
